This is the latest recevied weather packets stored in our database for station/object EA7OC-10. If no packets are shown the sender has not sent any weather packets the latest 10 day(s).
| Time | Temp. | Humidity | Pressure | Rain* | Wind** | Luminosity | Snow |
|---|---|---|---|---|---|---|---|
| 1788402176 | 26.67° C | 23% | 1019.6 hPa | - | - | - | - |
| 1788401276 | 26.67° C | 23% | 1019.7 hPa | - | - | - | - |
| 1788400376 | 26.67° C | 23% | 1019.6 hPa | - | - | - | - |
| 1788399476 | 27.22° C | 23% | 1019.6 hPa | - | - | - | - |
| 1788398575 | 27.22° C | 23% | 1019.5 hPa | - | - | - | - |
| 1788397674 | 27.22° C | 23% | 1019.7 hPa | - | - | - | - |
| 1788396774 | 27.78° C | 23% | 1019.6 hPa | - | - | - | - |
| 1788395874 | 28.33° C | 23% | 1019.6 hPa | - | - | - | - |
| 1788394974 | 28.33° C | 23% | 1019.8 hPa | - | - | - | - |
| 1788394074 | 28.33° C | 23% | 1019.8 hPa | - | - | - | - |
| 1788393173 | 28.33° C | 23% | 1019.7 hPa | - | - | - | - |
| 1788392273 | 28.89° C | 23% | 1019.6 hPa | - | - | - | - |
| 1788391373 | 29.44° C | 23% | 1019.8 hPa | - | - | - | - |
| 1788390473 | 30° C | 23% | 1019.7 hPa | - | - | - | - |
| 1788389573 | 30.56° C | 23% | 1019.5 hPa | - | - | - | - |
| 1788388673 | 30° C | 23% | 1019.5 hPa | - | - | - | - |
| 1788387773 | 30° C | 22% | 1019.3 hPa | - | - | - | - |
| 1788386873 | 30.56° C | 22% | 1019.2 hPa | - | - | - | - |
| 1788385973 | 30.56° C | 23% | 1019.2 hPa | - | - | - | - |
| 1788385072 | 31.67° C | 22% | 1019.1 hPa | - | - | - | - |
| 1788384172 | 31.67° C | 22% | 1018.9 hPa | - | - | - | - |
| 1788382381 | 32.78° C | 22% | 1018.6 hPa | - | - | - | - |
| 1788381481 | 32.78° C | 22% | 1018.5 hPa | - | - | - | - |
| 1788380581 | 33.33° C | 22% | 1018.2 hPa | - | - | - | - |
| 1788379681 | 33.89° C | 22% | 1018 hPa | - | - | - | - |
* Rain since midnight (hover to see other rain measurements)
** Current wind speed in m/s (hover to see current wind gust speed)